| time (UTC) | temp C | wind direction | speed KPH | gust KPH | rain 1hr cm | rain 24hr cm | rain mn cm | humidity % | barometer mb |
| 20260506051204 | 17 | 0 | 0.0 | 0.0 | 0.00 | 0.00 | 0.00 | 79 | 1035.9 |
| 20260506050904 | 18 | 0 | 0.0 | 0.0 | 0.00 | 0.00 | 0.00 | 78 | 1035.8 |
| 20260506050604 | 18 | 0 | 0.0 | 0.0 | 0.00 | 0.00 | 0.00 | 78 | 1035.9 |
| 20260506050304 | 18 | 0 | 0.0 | 0.0 | 0.00 | 0.00 | 0.00 | 77 | 1035.9 |
| 20260506045103 | 19 | 0 | 0.0 | 0.0 | 0.00 | 0.00 | 0.00 | 74 | 1036.0 |
| 20260506044504 | 19 | 0 | 0.0 | 0.0 | 0.00 | 0.00 | 0.00 | 74 | 1035.9 |
| 20260506044204 | 19 | 0 | 0.0 | 0.0 | 0.00 | 0.00 | 0.00 | 73 | 1036.2 |
| 20260506043904 | 19 | 0 | 0.0 | 0.0 | 0.00 | 0.00 | 0.00 | 72 | 1036.0 |
| 20260506043603 | 20 | 0 | 0.0 | 0.0 | 0.00 | 0.00 | 0.00 | 72 | 1036.0 |
| 20260506043004 | 20 | 0 | 0.0 | 0.0 | 0.00 | 0.00 | 0.00 | 70 | 1036.1 |
| 20260506042703 | 20 | 0 | 0.0 | 0.0 | 0.00 | 0.00 | 0.00 | 70 | 1036.0 |
| 20260506042404 | 20 | 0 | 0.0 | 0.0 | 0.00 | 0.00 | 0.00 | 70 | 1036.0 |
| 20260506042104 | 20 | 0 | 0.0 | 0.0 | 0.00 | 0.00 | 0.00 | 70 | 1036.1 |
| 20260506041806 | 20 | 0 | 0.0 | 0.0 | 0.00 | 0.00 | 0.00 | 71 | 1036.1 |
| 20260506041504 | 20 | 0 | 0.0 | 0.0 | 0.00 | 0.00 | 0.00 | 70 | 1036.1 |
| 20260506041204 | 20 | 0 | 0.0 | 0.0 | 0.00 | 0.00 | 0.00 | 70 | 1036.1 |
| 20260506040904 | 20 | 0 | 0.0 | 0.0 | 0.00 | 0.00 | 0.00 | 69 | 1036.1 |
| 20260506040603 | 20 | 0 | 0.0 | 0.0 | 0.00 | 0.00 | 0.00 | 69 | 1036.2 |
| 20260506040306 | 20 | 0 | 0.0 | 0.0 | 0.00 | 0.00 | 0.00 | 70 | 1036.2 |
| 20260506040004 | 20 | 0 | 0.0 | 0.0 | 0.00 | 0.00 | 0.00 | 71 | 1036.2 |
| 20260506035703 | 20 | 0 | 0.0 | 0.0 | 0.00 | 0.00 | 0.00 | 72 | 1036.0 |
| 20260506035404 | 20 | 0 | 0.0 | 0.0 | 0.00 | 0.00 | 0.00 | 72 | 1036.1 |
| 20260506035105 | 19 | 0 | 0.0 | 0.0 | 0.00 | 0.00 | 0.00 | 72 | 1036.1 |
| 20260506034504 | 20 | 0 | 0.0 | 0.0 | 0.00 | 0.00 | 0.00 | 72 | 1036.2 |
| 20260506034204 | 20 | 0 | 0.0 | 0.0 | 0.00 | 0.00 | 0.00 | 72 | 1036.2 |
| 20260506033904 | 20 | 0 | 0.0 | 0.0 | 0.00 | 0.00 | 0.00 | 72 | 1036.1 |
| 20260506033603 | 20 | 0 | 0.0 | 0.0 | 0.00 | 0.00 | 0.00 | 71 | 1036.0 |
| 20260506033304 | 20 | 0 | 0.0 | 0.0 | 0.00 | 0.00 | 0.00 | 71 | 1036.1 |
| 20260506033004 | 20 | 0 | 0.0 | 0.0 | 0.00 | 0.00 | 0.00 | 70 | 1036.2 |
| 20260506032703 | 20 | 0 | 0.0 | 0.0 | 0.00 | 0.00 | 0.00 | 67 | 1036.3 |
| 20260506032403 | 20 | 0 | 0.0 | 0.0 | 0.00 | 0.00 | 0.00 | 67 | 1036.3 |
| 20260506032104 | 20 | 0 | 0.0 | 0.0 | 0.00 | 0.00 | 0.00 | 68 | 1036.2 |
| 20260506031803 | 20 | 0 | 0.0 | 0.0 | 0.00 | 0.00 | 0.00 | 68 | 1036.3 |
| 20260506031504 | 20 | 0 | 0.0 | 0.0 | 0.00 | 0.00 | 0.00 | 67 | 1036.2 |
| 20260506031204 | 20 | 0 | 0.0 | 0.0 | 0.00 | 0.00 | 0.00 | 67 | 1036.2 |
| 20260506030905 | 20 | 0 | 0.0 | 0.0 | 0.00 | 0.00 | 0.00 | 67 | 1036.1 |
| 20260506030304 | 20 | 0 | 0.0 | 0.0 | 0.00 | 0.00 | 0.00 | 66 | 1036.2 |
| 20260506030004 | 20 | 0 | 0.0 | 0.0 | 0.00 | 0.00 | 0.00 | 66 | 1036.1 |
| 20260506025704 | 20 | 0 | 0.0 | 0.0 | 0.00 | 0.00 | 0.00 | 66 | 1036.2 |
| 20260506025103 | 21 | 0 | 0.0 | 0.0 | 0.00 | 0.00 | 0.00 | 63 | 1036.2 |
| 20260506024803 | 21 | 0 | 0.0 | 0.0 | 0.00 | 0.00 | 0.00 | 62 | 1036.3 |
| 20260506024504 | 21 | 0 | 0.0 | 0.0 | 0.00 | 0.00 | 0.00 | 61 | 1036.2 |
| 20260506024206 | 21 | 0 | 0.0 | 0.0 | 0.00 | 0.00 | 0.00 | 61 | 1036.3 |
| 20260506023304 | 22 | 0 | 0.0 | 0.0 | 0.00 | 0.00 | 0.00 | 58 | 1036.4 |
| 20260506023004 | 22 | 0 | 0.0 | 0.0 | 0.00 | 0.00 | 0.00 | 58 | 1036.3 |
| 20260506022704 | 22 | 0 | 0.0 | 0.0 | 0.00 | 0.00 | 0.00 | 56 | 1036.5 |
| 20260506022406 | 23 | 0 | 0.0 | 0.0 | 0.00 | 0.00 | 0.00 | 57 | 1036.4 |
| 20260506022103 | 23 | 0 | 0.0 | 0.0 | 0.00 | 0.00 | 0.00 | 56 | 1036.5 |
| 20260506021804 | 23 | 0 | 0.0 | 0.0 | 0.00 | 0.00 | 0.00 | 56 | 1036.5 |
| 20260506021503 | 23 | 0 | 0.0 | 0.0 | 0.00 | 0.00 | 0.00 | 58 | 1036.3 |
| 20260506021205 | 23 | 0 | 0.0 | 0.0 | 0.00 | 0.00 | 0.00 | 61 | 1036.5 |
| 20260506020904 | 22 | 0 | 0.0 | 0.0 | 0.00 | 0.00 | 0.00 | 60 | 1036.6 |
| 20260506020604 | 22 | 0 | 0.0 | 0.0 | 0.00 | 0.00 | 0.00 | 59 | 1036.5 |
| 20260506020304 | 22 | 0 | 0.0 | 0.0 | 0.00 | 0.00 | 0.00 | 59 | 1036.5 |
| 20260506020004 | 22 | 0 | 0.0 | 0.0 | 0.00 | 0.00 | 0.00 | 59 | 1036.4 |
| 20260506015703 | 22 | 0 | 0.0 | 0.0 | 0.00 | 0.00 | 0.00 | 59 | 1036.4 |
| 20260506015403 | 22 | 0 | 0.0 | 0.0 | 0.00 | 0.00 | 0.00 | 59 | 1036.5 |
| 20260506014505 | 21 | 0 | 0.0 | 0.0 | 0.00 | 0.00 | 0.00 | 63 | 1036.4 |
| 20260506014203 | 21 | 0 | 0.0 | 0.0 | 0.00 | 0.00 | 0.00 | 64 | 1036.5 |
| 20260506013904 | 20 | 0 | 0.0 | 0.0 | 0.00 | 0.00 | 0.00 | 66 | 1036.5 |
| 20260506013604 | 20 | 0 | 0.0 | 0.0 | 0.00 | 0.00 | 0.00 | 66 | 1036.6 |
| 20260506013304 | 20 | 0 | 0.0 | 0.0 | 0.00 | 0.00 | 0.00 | 65 | 1036.8 |
| 20260506013003 | 20 | 0 | 0.0 | 0.0 | 0.00 | 0.00 | 0.00 | 66 | 1036.8 |
| 20260506012704 | 20 | 0 | 0.0 | 0.0 | 0.00 | 0.00 | 0.00 | 66 | 1036.6 |
| 20260506012404 | 20 | 0 | 0.0 | 0.0 | 0.00 | 0.00 | 0.00 | 65 | 1036.5 |
| 20260506012104 | 20 | 0 | 0.0 | 0.0 | 0.00 | 0.00 | 0.00 | 65 | 1036.8 |
| 20260506011203 | 20 | 0 | 0.0 | 0.0 | 0.00 | 0.00 | 0.00 | 64 | 1036.8 |
| 20260506010904 | 20 | 0 | 0.0 | 0.0 | 0.00 | 0.00 | 0.00 | 64 | 1036.8 |
| 20260506010604 | 21 | 0 | 0.0 | 0.0 | 0.00 | 0.00 | 0.00 | 63 | 1036.7 |
| 20260506010303 | 21 | 0 | 0.0 | 0.0 | 0.00 | 0.00 | 0.00 | 63 | 1036.8 |
| 20260506010004 | 21 | 0 | 0.0 | 0.0 | 0.00 | 0.00 | 0.00 | 62 | 1036.8 |
| 20260506005703 | 21 | 0 | 0.0 | 0.0 | 0.00 | 0.00 | 0.00 | 63 | 1036.7 |
| 20260506005404 | 20 | 0 | 0.0 | 0.0 | 0.00 | 0.00 | 0.00 | 64 | 1036.8 |
| 20260506005104 | 20 | 0 | 0.0 | 0.0 | 0.00 | 0.00 | 0.00 | 64 | 1036.9 |
| 20260506004803 | 21 | 0 | 0.0 | 0.0 | 0.00 | 0.00 | 0.00 | 64 | 1036.9 |
| 20260506004505 | 20 | 0 | 0.0 | 0.0 | 0.00 | 0.00 | 0.00 | 64 | 1037.0 |
| 20260506003903 | 21 | 0 | 0.0 | 0.0 | 0.00 | 0.00 | 0.00 | 62 | 1037.1 |
| 20260506003604 | 21 | 0 | 0.0 | 0.0 | 0.00 | 0.00 | 0.00 | 61 | 1037.1 |
| 20260506003303 | 21 | 0 | 0.0 | 0.0 | 0.00 | 0.00 | 0.00 | 62 | 1037.1 |
| 20260506003004 | 21 | 0 | 0.0 | 0.0 | 0.00 | 0.00 | 0.00 | 62 | 1037.1 |
| 20260506002703 | 21 | 0 | 0.0 | 0.0 | 0.00 | 0.00 | 0.00 | 61 | 1037.3 |
| 20260506002104 | 22 | 0 | 0.0 | 0.0 | 0.00 | 0.00 | 0.00 | 59 | 1037.3 |
| 20260506001804 | 22 | 0 | 0.0 | 0.0 | 0.00 | 0.00 | 0.00 | 60 | 1037.3 |
| 20260506001203 | 21 | 0 | 0.0 | 0.0 | 0.00 | 0.00 | 0.00 | 63 | 1037.5 |
| 20260506000904 | 21 | 0 | 0.0 | 0.0 | 0.00 | 0.00 | 0.00 | 62 | 1037.5 |
| 20260506000603 | 21 | 0 | 0.0 | 0.0 | 0.00 | 0.00 | 0.00 | 61 | 1037.6 |
| 20260506000304 | 22 | 0 | 0.0 | 0.0 | 0.00 | 0.00 | 0.00 | 58 | 1037.6 |
| 20260506000005 | 22 | 0 | 0.0 | 0.0 | 0.00 | 0.00 | 0.00 | 58 | 1037.6 |
| 20260505235703 | 22 | 0 | 0.0 | 0.0 | 0.00 | 0.00 | 0.00 | 58 | 1037.7 |
| 20260505235407 | 22 | 0 | 0.0 | 0.0 | 0.00 | 0.00 | 0.00 | 58 | 1037.5 |
| 20260505235104 | 22 | 0 | 0.0 | 0.0 | 0.00 | 0.00 | 0.00 | 59 | 1037.7 |
| 20260505234203 | 21 | 0 | 0.0 | 0.0 | 0.00 | 0.00 | 0.00 | 60 | 1037.7 |
| 20260505233904 | 21 | 0 | 0.0 | 0.0 | 0.00 | 0.00 | 0.00 | 60 | 1037.8 |
| 20260505233004 | 21 | 0 | 0.0 | 0.0 | 0.00 | 0.00 | 0.00 | 63 | 1037.8 |
| 20260505232704 | 20 | 0 | 0.0 | 0.0 | 0.00 | 0.00 | 0.00 | 63 | 1037.9 |
| 20260505232403 | 20 | 0 | 0.0 | 0.0 | 0.00 | 0.00 | 0.00 | 63 | 1037.9 |
| 20260505232104 | 20 | 0 | 0.0 | 0.0 | 0.00 | 0.00 | 0.00 | 63 | 1038.1 |
| 20260505231804 | 20 | 0 | 0.0 | 0.0 | 0.00 | 0.00 | 0.00 | 62 | 1038.0 |
| 20260505231503 | 20 | 0 | 0.0 | 0.0 | 0.00 | 0.00 | 0.00 | 62 | 1038.1 |
| 20260505231204 | 20 | 0 | 0.0 | 0.0 | 0.00 | 0.00 | 0.00 | 62 | 1038.0 |
| 20260505230903 | 20 | 0 | 0.0 | 0.0 | 0.00 | 0.00 | 0.00 | 61 | 1038.3 |
| 20260505230604 | 20 | 0 | 0.0 | 0.0 | 0.00 | 0.00 | 0.00 | 60 | 1038.2 |
| 20260505230303 | 21 | 0 | 0.0 | 0.0 | 0.00 | 0.00 | 0.00 | 59 | 1038.3 |
| 20260505230004 | 20 | 0 | 0.0 | 0.0 | 0.00 | 0.00 | 0.00 | 60 | 1038.2 |
| 20260505225703 | 20 | 0 | 0.0 | 0.0 | 0.00 | 0.00 | 0.00 | 61 | 1038.1 |
| 20260505225104 | 20 | 0 | 0.0 | 0.0 | 0.00 | 0.00 | 0.00 | 60 | 1038.3 |
| 20260505224803 | 20 | 0 | 0.0 | 0.0 | 0.00 | 0.00 | 0.00 | 59 | 1038.3 |
| 20260505224504 | 21 | 0 | 0.0 | 0.0 | 0.00 | 0.00 | 0.00 | 57 | 1038.3 |
| 20260505224203 | 21 | 0 | 0.0 | 0.0 | 0.00 | 0.00 | 0.00 | 58 | 1038.3 |
| 20260505223604 | 20 | 0 | 0.0 | 0.0 | 0.00 | 0.00 | 0.00 | 65 | 1038.5 |
| 20260505223304 | 19 | 0 | 0.0 | 0.0 | 0.00 | 0.00 | 0.00 | 65 | 1038.4 |
| 20260505223004 | 19 | 0 | 0.0 | 0.0 | 0.00 | 0.00 | 0.00 | 64 | 1038.3 |
| 20260505222704 | 19 | 0 | 0.0 | 0.0 | 0.00 | 0.00 | 0.00 | 66 | 1038.4 |
| 20260505222404 | 19 | 0 | 0.0 | 0.0 | 0.00 | 0.00 | 0.00 | 67 | 1038.5 |
| 20260505222104 | 18 | 0 | 0.0 | 0.0 | 0.00 | 0.00 | 0.00 | 68 | 1038.5 |
| 20260505221806 | 18 | 0 | 0.0 | 0.0 | 0.00 | 0.00 | 0.00 | 68 | 1038.6 |
| 20260505221503 | 18 | 0 | 0.0 | 0.0 | 0.00 | 0.00 | 0.00 | 69 | 1038.7 |
| 20260505221204 | 18 | 0 | 0.0 | 0.0 | 0.00 | 0.00 | 0.00 | 70 | 1038.6 |
| 20260505220904 | 18 | 0 | 0.0 | 0.0 | 0.00 | 0.00 | 0.00 | 69 | 1038.6 |
| 20260505220603 | 18 | 0 | 0.0 | 0.0 | 0.00 | 0.00 | 0.00 | 69 | 1038.5 |
| 20260505220303 | 18 | 0 | 0.0 | 0.0 | 0.00 | 0.00 | 0.00 | 69 | 1038.5 |
| 20260505220005 | 18 | 0 | 0.0 | 0.0 | 0.00 | 0.00 | 0.00 | 70 | 1038.7 |
| 20260505215406 | 18 | 0 | 0.0 | 0.0 | 0.00 | 0.00 | 0.00 | 70 | 1038.7 |
| 20260505215104 | 17 | 0 | 0.0 | 0.0 | 0.00 | 0.00 | 0.00 | 71 | 1038.7 |
| 20260505214804 | 17 | 0 | 0.0 | 0.0 | 0.00 | 0.00 | 0.00 | 74 | 1039.0 |
| 20260505214504 | 17 | 0 | 0.0 | 0.0 | 0.00 | 0.00 | 0.00 | 76 | 1038.7 |
| 20260505214204 | 16 | 0 | 0.0 | 0.0 | 0.00 | 0.00 | 0.00 | 79 | 1038.7 |
| 20260505213606 | 15 | 10 | 0.0 | 4.8 | 0.00 | 0.00 | 0.00 | 79 | 1038.9 |
| 20260505213305 | 15 | 7 | 0.0 | 4.8 | 0.00 | 0.00 | 0.00 | 77 | 1038.8 |
| 20260505213004 | 16 | 6 | 1.6 | 4.8 | 0.00 | 0.00 | 0.00 | 76 | 1038.8 |
| 20260505212404 | 16 | 22 | 0.0 | 3.2 | 0.00 | 0.00 | 0.00 | 79 | 1038.8 |
| 20260505212104 | 16 | 24 | 0.0 | 3.2 | 0.00 | 0.00 | 0.00 | 80 | 1038.9 |
| 20260505211804 | 16 | 11 | 1.6 | 3.2 | 0.00 | 0.00 | 0.00 | 81 | 1038.8 |
| 20260505211504 | 16 | 4 | 0.0 | 3.2 | 0.00 | 0.00 | 0.00 | 81 | 1039.0 |
| 20260505210904 | 15 | 37 | 0.0 | 4.8 | 0.00 | 0.00 | 0.00 | 85 | 1039.0 |
| 20260505210603 | 15 | 40 | 1.6 | 6.4 | 0.00 | 0.00 | 0.00 | 86 | 1039.0 |
| 20260505210304 | 14 | 37 | 1.6 | 6.4 | 0.00 | 0.00 | 0.00 | 88 | 1039.0 |
| 20260505210004 | 13 | 21 | 3.2 | 6.4 | 0.00 | 0.00 | 0.00 | 89 | 1039.0 |
| 20260505205704 | 13 | 21 | 3.2 | 6.4 | 0.00 | 0.00 | 0.00 | 89 | 1039.0 |
| 20260505205403 | 13 | 12 | 1.6 | 6.4 | 0.00 | 0.00 | 0.00 | 89 | 1039.1 |
| 20260505205106 | 13 | 20 | 1.6 | 6.4 | 0.00 | 0.00 | 0.00 | 89 | 1039.0 |
| 20260505204804 | 13 | 25 | 3.2 | 6.4 | 0.00 | 0.00 | 0.00 | 90 | 1039.0 |
| 20260505204504 | 13 | 17 | 3.2 | 6.4 | 0.00 | 0.00 | 0.00 | 90 | 1039.1 |
| 20260505203603 | 13 | 346 | 3.2 | 4.8 | 0.00 | 0.00 | 0.00 | 95 | 1039.3 |
| 20260505203304 | 12 | 352 | 0.0 | 4.8 | 0.00 | 0.00 | 0.00 | 95 | 1039.2 |
| 20260505203003 | 12 | 33 | 3.2 | 3.2 | 0.00 | 0.00 | 0.00 | 95 | 1039.1 |
| 20260505202704 | 12 | 39 | 0.0 | 3.2 | 0.00 | 0.00 | 0.00 | 96 | 1039.2 |
| 20260505202403 | 12 | 32 | 1.6 | 3.2 | 0.00 | 0.00 | 0.00 | 96 | 1039.3 |
| 20260505202104 | 12 | 23 | 0.0 | 3.2 | 0.00 | 0.00 | 0.00 | 96 | 1039.2 |
| 20260505201803 | 12 | 17 | 1.6 | 3.2 | 0.00 | 0.00 | 0.00 | 97 | 1039.3 |
| 20260505201504 | 12 | 28 | 0.0 | 1.6 | 0.00 | 0.00 | 0.00 | 97 | 1039.1 |
| 20260505200906 | 12 | 1 | 0.0 | 1.6 | 0.00 | 0.00 | 0.00 | 97 | 1039.2 |
| 20260505200604 | 12 | 34 | 0.0 | 1.6 | 0.00 | 0.00 | 0.00 | 97 | 1039.1 |
| 20260505200303 | 12 | 27 | 0.0 | 1.6 | 0.00 | 0.00 | 0.00 | 97 | 1039.1 |
| 20260505200004 | 11 | 17 | 0.0 | 1.6 | 0.00 | 0.00 | 0.00 | 98 | 1039.0 |
| 20260505195704 | 11 | 1 | 0.0 | 1.6 | 0.00 | 0.00 | 0.00 | 98 | 1039.0 |
| 20260505194803 | 11 | 0 | 0.0 | 0.0 | 0.00 | 0.00 | 0.00 | 98 | 1039.0 |
| 20260505194504 | 11 | 0 | 0.0 | 0.0 | 0.00 | 0.00 | 0.00 | 98 | 1038.9 |
| 20260505194203 | 11 | 0 | 0.0 | 0.0 | 0.00 | 0.00 | 0.00 | 98 | 1039.0 |
| 20260505193904 | 11 | 0 | 0.0 | 0.0 | 0.00 | 0.00 | 0.00 | 98 | 1038.9 |
| 20260505193603 | 11 | 0 | 0.0 | 0.0 | 0.00 | 0.00 | 0.00 | 98 | 1038.8 |
| 20260505193304 | 11 | 0 | 0.0 | 0.0 | 0.00 | 0.00 | 0.00 | 98 | 1038.9 |
| 20260505193004 | 11 | 0 | 0.0 | 0.0 | 0.00 | 0.00 | 0.00 | 98 | 1038.9 |
| 20260505192404 | 11 | 0 | 0.0 | 0.0 | 0.00 | 0.00 | 0.00 | 98 | 1038.8 |
| 20260505192104 | 11 | 135 | 0.0 | 1.6 | 0.00 | 0.00 | 0.00 | 98 | 1038.8 |
| 20260505191803 | 11 | 158 | 0.0 | 1.6 | 0.00 | 0.00 | 0.00 | 98 | 1038.8 |
| 20260505191504 | 11 | 161 | 0.0 | 1.6 | 0.00 | 0.00 | 0.00 | 98 | 1038.6 |
| 20260505191206 | 11 | 161 | 0.0 | 1.6 | 0.00 | 0.00 | 0.00 | 98 | 1038.7 |
| 20260505190906 | 11 | 181 | 0.0 | 1.6 | 0.00 | 0.00 | 0.00 | 98 | 1038.7 |
| 20260505190604 | 11 | 0 | 0.0 | 0.0 | 0.00 | 0.00 | 0.00 | 98 | 1038.6 |
| 20260505190304 | 11 | 0 | 0.0 | 0.0 | 0.00 | 0.00 | 0.00 | 98 | 1038.8 |
| 20260505190004 | 11 | 0 | 0.0 | 0.0 | 0.00 | 0.00 | 0.00 | 98 | 1038.5 |
| 20260505185403 | 11 | 0 | 0.0 | 0.0 | 0.00 | 0.00 | 0.00 | 98 | 1038.7 |
| 20260505185104 | 11 | 248 | 0.0 | 1.6 | 0.00 | 0.00 | 0.00 | 98 | 1038.8 |
| 20260505184804 | 11 | 248 | 0.0 | 1.6 | 0.00 | 0.00 | 0.00 | 98 | 1038.7 |
| 20260505183904 | 11 | 0 | 0.0 | 0.0 | 0.00 | 0.00 | 0.00 | 98 | 1038.8 |
| 20260505183604 | 11 | 0 | 0.0 | 0.0 | 0.00 | 0.00 | 0.00 | 98 | 1038.8 |
| 20260505183304 | 11 | 0 | 0.0 | 0.0 | 0.00 | 0.00 | 0.00 | 97 | 1038.4 |
| 20260505183004 | 11 | 0 | 0.0 | 0.0 | 0.00 | 0.00 | 0.00 | 97 | 1038.5 |
| 20260505182703 | 11 | 0 | 0.0 | 0.0 | 0.00 | 0.00 | 0.00 | 97 | 1038.6 |
| 20260505182404 | 11 | 0 | 0.0 | 0.0 | 0.00 | 0.00 | 0.00 | 97 | 1038.6 |
| 20260505182104 | 11 | 0 | 0.0 | 0.0 | 0.00 | 0.00 | 0.00 | 97 | 1038.6 |
| 20260505181804 | 11 | 0 | 0.0 | 0.0 | 0.00 | 0.00 | 0.00 | 97 | 1038.6 |
| 20260505181504 | 11 | 0 | 0.0 | 0.0 | 0.00 | 0.00 | 0.00 | 97 | 1038.5 |
| 20260505181204 | 11 | 0 | 0.0 | 0.0 | 0.00 | 0.00 | 0.00 | 97 | 1038.4 |
| 20260505180604 | 11 | 0 | 0.0 | 0.0 | 0.00 | 0.00 | 0.00 | 97 | 1038.4 |
| 20260505180303 | 11 | 0 | 0.0 | 0.0 | 0.00 | 0.00 | 0.00 | 97 | 1038.4 |
| 20260505180004 | 11 | 0 | 0.0 | 0.0 | 0.00 | 0.00 | 0.00 | 97 | 1038.5 |
| 20260505175703 | 11 | 0 | 0.0 | 0.0 | 0.00 | 0.00 | 0.00 | 97 | 1038.5 |
| 20260505175404 | 11 | 0 | 0.0 | 0.0 | 0.00 | 0.00 | 0.00 | 97 | 1038.6 |
| 20260505174804 | 11 | 0 | 0.0 | 0.0 | 0.00 | 0.00 | 0.00 | 97 | 1038.6 |
| 20260505174504 | 11 | 0 | 0.0 | 0.0 | 0.00 | 0.00 | 0.00 | 97 | 1038.7 |
| 20260505174206 | 11 | 0 | 0.0 | 0.0 | 0.00 | 0.00 | 0.00 | 97 | 1038.7 |
| 20260505173904 | 11 | 0 | 0.0 | 0.0 | 0.00 | 0.00 | 0.00 | 97 | 1038.6 |
| 20260505173604 | 11 | 0 | 0.0 | 0.0 | 0.00 | 0.00 | 0.00 | 97 | 1038.7 |
| 20260505173004 | 11 | 0 | 0.0 | 0.0 | 0.00 | 0.00 | 0.00 | 97 | 1038.7 |
| 20260505172703 | 11 | 0 | 0.0 | 0.0 | 0.00 | 0.00 | 0.00 | 97 | 1038.6 |
| 20260505172404 | 11 | 0 | 0.0 | 0.0 | 0.00 | 0.00 | 0.00 | 97 | 1038.7 |
| 20260505172103 | 11 | 0 | 0.0 | 0.0 | 0.00 | 0.00 | 0.00 | 97 | 1038.8 |
| 20260505171804 | 11 | 0 | 0.0 | 0.0 | 0.00 | 0.00 | 0.00 | 97 | 1038.7 |
| 20260505171505 | 11 | 0 | 0.0 | 0.0 | 0.00 | 0.00 | 0.00 | 97 | 1038.7 |
| 20260505171204 | 11 | 0 | 0.0 | 0.0 | 0.00 | 0.00 | 0.00 | 97 | 1038.8 |
| 20260505170904 | 11 | 0 | 0.0 | 0.0 | 0.00 | 0.00 | 0.00 | 97 | 1038.7 |
| 20260505170604 | 11 | 0 | 0.0 | 0.0 | 0.00 | 0.00 | 0.00 | 97 | 1038.8 |
| 20260505170303 | 11 | 0 | 0.0 | 0.0 | 0.00 | 0.00 | 0.00 | 97 | 1038.8 |
| 20260505170004 | 11 | 0 | 0.0 | 0.0 | 0.00 | 0.00 | 0.00 | 97 | 1038.7 |
| 20260505165704 | 11 | 0 | 0.0 | 0.0 | 0.00 | 0.00 | 0.00 | 97 | 1038.8 |
| 20260505165403 | 11 | 0 | 0.0 | 0.0 | 0.00 | 0.00 | 0.00 | 97 | 1038.8 |
| 20260505165104 | 11 | 0 | 0.0 | 0.0 | 0.00 | 0.00 | 0.00 | 97 | 1038.9 |
| 20260505164506 | 11 | 0 | 0.0 | 0.0 | 0.00 | 0.00 | 0.00 | 97 | 1038.8 |
| 20260505164204 | 11 | 0 | 0.0 | 0.0 | 0.00 | 0.00 | 0.00 | 97 | 1038.7 |
| 20260505163904 | 11 | 0 | 0.0 | 0.0 | 0.00 | 0.00 | 0.00 | 97 | 1038.9 |
| 20260505163605 | 11 | 0 | 0.0 | 0.0 | 0.00 | 0.00 | 0.00 | 97 | 1038.9 |
| 20260505163303 | 11 | 0 | 0.0 | 0.0 | 0.00 | 0.00 | 0.00 | 97 | 1038.9 |
| 20260505163004 | 11 | 0 | 0.0 | 0.0 | 0.00 | 0.00 | 0.00 | 97 | 1039.0 |
| 20260505162703 | 11 | 0 | 0.0 | 0.0 | 0.00 | 0.00 | 0.00 | 97 | 1039.0 |
| 20260505162404 | 11 | 0 | 0.0 | 0.0 | 0.00 | 0.00 | 0.00 | 97 | 1038.7 |
| 20260505162104 | 11 | 0 | 0.0 | 0.0 | 0.00 | 0.00 | 0.00 | 97 | 1038.9 |
| 20260505161803 | 11 | 0 | 0.0 | 0.0 | 0.00 | 0.00 | 0.00 | 97 | 1038.9 |
| 20260505161504 | 11 | 0 | 0.0 | 0.0 | 0.00 | 0.00 | 0.00 | 97 | 1038.9 |
| 20260505161204 | 11 | 0 | 0.0 | 0.0 | 0.00 | 0.00 | 0.00 | 97 | 1038.9 |
| 20260505160904 | 11 | 0 | 0.0 | 0.0 | 0.00 | 0.00 | 0.00 | 97 | 1038.8 |
| 20260505160604 | 11 | 0 | 0.0 | 0.0 | 0.00 | 0.00 | 0.00 | 97 | 1038.8 |
| 20260505160304 | 11 | 0 | 0.0 | 0.0 | 0.00 | 0.00 | 0.00 | 97 | 1038.9 |
| 20260505153304 | 11 | 135 | 0.0 | 1.6 | 0.00 | 0.00 | 0.00 | 97 | 1038.8 |
| 20260505153004 | 11 | 135 | 0.0 | 1.6 | 0.00 | 0.00 | 0.00 | 96 | 1038.9 |
| 20260505152703 | 11 | 135 | 0.0 | 3.2 | 0.00 | 0.00 | 0.00 | 96 | 1038.9 |
| 20260505152405 | 11 | 135 | 0.0 | 3.2 | 0.00 | 0.00 | 0.00 | 96 | 1038.8 |
| 20260505152104 | 11 | 135 | 0.0 | 3.2 | 0.00 | 0.00 | 0.00 | 96 | 1039.0 |
| 20260505151806 | 11 | 135 | 1.6 | 3.2 | 0.00 | 0.00 | 0.00 | 96 | 1039.1 |
| 20260505151504 | 11 | 135 | 0.0 | 1.6 | 0.00 | 0.00 | 0.00 | 96 | 1038.8 |
| 20260505151204 | 11 | 248 | 0.0 | 1.6 | 0.00 | 0.00 | 0.00 | 96 | 1039.0 |
| 20260505150903 | 11 | 248 | 0.0 | 1.6 | 0.00 | 0.00 | 0.00 | 96 | 1039.0 |
| 20260505150603 | 11 | 248 | 0.0 | 1.6 | 0.00 | 0.00 | 0.00 | 96 | 1039.0 |
| 20260505140604 | 11 | 0 | 0.0 | 0.0 | 0.00 | 0.00 | 0.00 | 96 | 1039.7 |
| 20260505124504 | 11 | 1 | 0.0 | 1.6 | 0.00 | 0.00 | 0.00 | 95 | 1040.1 |
| 20260505124205 | 11 | 1 | 0.0 | 1.6 | 0.00 | 0.00 | 0.00 | 95 | 1040.2 |
| 20260505123903 | 11 | 0 | 0.0 | 0.0 | 0.00 | 0.00 | 0.00 | 95 | 1040.2 |
| 20260505123606 | 11 | 0 | 0.0 | 0.0 | 0.00 | 0.00 | 0.00 | 95 | 1040.1 |
| 20260505123304 | 11 | 0 | 0.0 | 0.0 | 0.00 | 0.00 | 0.00 | 95 | 1040.2 |
| 20260505123003 | 11 | 248 | 0.0 | 1.6 | 0.00 | 0.00 | 0.00 | 95 | 1040.2 |
| 20260505122704 | 11 | 248 | 0.0 | 1.6 | 0.00 | 0.00 | 0.00 | 95 | 1040.3 |
| 20260505122403 | 11 | 248 | 0.0 | 1.6 | 0.00 | 0.00 | 0.00 | 95 | 1040.1 |
| 20260505122104 | 11 | 248 | 0.0 | 1.6 | 0.00 | 0.00 | 0.00 | 95 | 1040.4 |
| 20260505121804 | 11 | 327 | 0.0 | 1.6 | 0.00 | 0.00 | 0.00 | 95 | 1040.3 |
| 20260505121504 | 11 | 332 | 0.0 | 1.6 | 0.00 | 0.00 | 0.00 | 95 | 1040.2 |
| 20260505121204 | 11 | 332 | 0.0 | 1.6 | 0.00 | 0.00 | 0.00 | 95 | 1040.4 |
| 20260505120904 | 11 | 1 | 0.0 | 1.6 | 0.00 | 0.00 | 0.00 | 95 | 1040.3 |
| 20260505120604 | 11 | 135 | 0.0 | 1.6 | 0.00 | 0.00 | 0.00 | 95 | 1040.3 |
| 20260505120304 | 11 | 135 | 0.0 | 3.2 | 0.00 | 0.00 | 0.00 | 95 | 1040.2 |
| 20260505120006 | 11 | 135 | 0.0 | 3.2 | 0.00 | 0.00 | 0.00 | 95 | 1040.4 |
| 20260505115704 | 11 | 135 | 0.0 | 3.2 | 0.00 | 0.00 | 0.00 | 95 | 1040.4 |
| 20260505115404 | 11 | 135 | 0.0 | 3.2 | 0.00 | 0.00 | 0.00 | 95 | 1040.4 |
| 20260505115103 | 11 | 135 | 0.0 | 3.2 | 0.00 | 0.00 | 0.00 | 95 | 1040.4 |
| 20260505114805 | 11 | 159 | 0.0 | 3.2 | 0.00 | 0.00 | 0.00 | 95 | 1040.4 |
| 20260505114504 | 11 | 268 | 0.0 | 3.2 | 0.00 | 0.00 | 0.00 | 95 | 1040.3 |
| 20260505114203 | 11 | 276 | 0.0 | 3.2 | 0.00 | 0.00 | 0.00 | 95 | 1040.3 |
| 20260505113904 | 11 | 290 | 0.0 | 3.2 | 0.00 | 0.00 | 0.00 | 95 | 1040.3 |
| 20260505113604 | 11 | 288 | 1.6 | 3.2 | 0.00 | 0.00 | 0.00 | 95 | 1040.4 |
| 20260505113303 | 11 | 333 | 1.6 | 3.2 | 0.00 | 0.00 | 0.00 | 95 | 1040.4 |
| 20260505113004 | 11 | 345 | 0.0 | 3.2 | 0.00 | 0.00 | 0.00 | 95 | 1040.3 |
| 20260505112703 | 11 | 311 | 0.0 | 3.2 | 0.00 | 0.00 | 0.00 | 95 | 1040.4 |
| 20260505112404 | 11 | 288 | 0.0 | 3.2 | 0.00 | 0.00 | 0.00 | 95 | 1040.4 |
| 20260505111505 | 11 | 281 | 0.0 | 3.2 | 0.00 | 0.00 | 0.00 | 96 | 1040.7 |
| 20260505110904 | 11 | 225 | 0.0 | 1.6 | 0.00 | 0.00 | 0.00 | 96 | 1040.5 |
| 20260505110604 | 11 | 181 | 0.0 | 1.6 | 0.00 | 0.00 | 0.00 | 96 | 1040.7 |
| 20260505110305 | 11 | 181 | 0.0 | 1.6 | 0.00 | 0.00 | 0.00 | 96 | 1040.8 |
| 20260505101804 | 10 | 7 | 0.0 | 3.2 | 0.00 | 0.00 | 0.00 | 97 | 1040.9 |
| 20260505101504 | 10 | 5 | 0.0 | 3.2 | 0.00 | 0.00 | 0.00 | 97 | 1041.1 |
| 20260505100904 | 10 | 355 | 1.6 | 3.2 | 0.00 | 0.00 | 0.00 | 97 | 1041.0 |
| 20260505100605 | 10 | 323 | 0.0 | 3.2 | 0.00 | 0.00 | 0.00 | 97 | 1040.9 |
| 20260505100306 | 10 | 241 | 0.0 | 1.6 | 0.00 | 0.00 | 0.00 | 97 | 1040.9 |
| 20260505100004 | 10 | 225 | 0.0 | 1.6 | 0.00 | 0.00 | 0.00 | 97 | 1040.9 |
| 20260505095703 | 10 | 1 | 0.0 | 1.6 | 0.00 | 0.00 | 0.00 | 97 | 1040.9 |
| 20260505095404 | 10 | 1 | 0.0 | 1.6 | 0.00 | 0.00 | 0.00 | 97 | 1040.9 |
| 20260505095104 | 10 | 32 | 0.0 | 3.2 | 0.00 | 0.00 | 0.00 | 97 | 1041.0 |
| 20260505094203 | 10 | 46 | 0.0 | 3.2 | 0.00 | 0.00 | 0.00 | 97 | 1040.9 |
| 20260505093604 | 10 | 0 | 0.0 | 0.0 | 0.00 | 0.00 | 0.00 | 97 | 1040.8 |
| 20260505093304 | 10 | 181 | 0.0 | 1.6 | 0.00 | 0.00 | 0.00 | 97 | 1040.9 |
| 20260505093004 | 10 | 181 | 0.0 | 1.6 | 0.00 | 0.00 | 0.00 | 97 | 1040.8 |
| 20260505092704 | 10 | 90 | 0.0 | 3.2 | 0.00 | 0.00 | 0.00 | 97 | 1040.9 |
| 20260505092403 | 10 | 49 | 0.0 | 3.2 | 0.00 | 0.00 | 0.00 | 97 | 1040.8 |
| 20260505092104 | 10 | 49 | 0.0 | 3.2 | 0.00 | 0.00 | 0.00 | 97 | 1040.8 |
| 20260505091803 | 10 | 40 | 0.0 | 3.2 | 0.00 | 0.00 | 0.00 | 97 | 1040.9 |
| 20260505091504 | 10 | 45 | 0.0 | 1.6 | 0.00 | 0.00 | 0.00 | 97 | 1040.8 |
| 20260505091204 | 10 | 0 | 0.0 | 0.0 | 0.00 | 0.00 | 0.00 | 97 | 1040.8 |
| 20260505090904 | 10 | 347 | 0.0 | 1.6 | 0.00 | 0.00 | 0.00 | 97 | 1040.8 |
| 20260505090603 | 10 | 355 | 0.0 | 3.2 | 0.00 | 0.00 | 0.00 | 97 | 1040.7 |
| 20260505090004 | 10 | 353 | 0.0 | 3.2 | 0.00 | 0.00 | 0.00 | 97 | 1040.8 |
| 20260505085703 | 10 | 354 | 0.0 | 3.2 | 0.00 | 0.00 | 0.00 | 97 | 1040.6 |
| 20260505085404 | 10 | 356 | 0.0 | 3.2 | 0.00 | 0.00 | 0.00 | 97 | 1040.6 |
| 20260505084804 | 10 | 1 | 0.0 | 1.6 | 0.00 | 0.00 | 0.00 | 96 | 1040.8 |
| 20260505084504 | 10 | 0 | 0.0 | 0.0 | 0.00 | 0.00 | 0.00 | 96 | 1040.8 |
| 20260505084204 | 10 | 0 | 0.0 | 0.0 | 0.00 | 0.00 | 0.00 | 96 | 1040.8 |
| 20260505083904 | 10 | 0 | 0.0 | 0.0 | 0.00 | 0.00 | 0.00 | 96 | 1040.8 |
| 20260505083605 | 10 | 45 | 0.0 | 1.6 | 0.00 | 0.00 | 0.00 | 97 | 1040.8 |
| 20260505083304 | 10 | 14 | 0.0 | 3.2 | 0.00 | 0.00 | 0.00 | 97 | 1040.9 |
| 20260505083005 | 10 | 7 | 0.0 | 3.2 | 0.00 | 0.00 | 0.00 | 97 | 1040.7 |
| 20260505082704 | 10 | 5 | 0.0 | 3.2 | 0.00 | 0.00 | 0.00 | 97 | 1040.9 |
| 20260505082104 | 9 | 1 | 1.6 | 3.2 | 0.00 | 0.00 | 0.00 | 96 | 1040.7 |
| 20260505081804 | 9 | 1 | 0.0 | 1.6 | 0.00 | 0.00 | 0.00 | 96 | 1040.8 |
| 20260505081504 | 9 | 0 | 0.0 | 0.0 | 0.00 | 0.00 | 0.00 | 96 | 1040.8 |
| 20260505081204 | 9 | 0 | 0.0 | 0.0 | 0.00 | 0.00 | 0.00 | 95 | 1040.7 |
| 20260505080903 | 9 | 0 | 0.0 | 0.0 | 0.00 | 0.00 | 0.00 | 95 | 1040.7 |
| 20260505080604 | 9 | 0 | 0.0 | 0.0 | 0.00 | 0.00 | 0.00 | 95 | 1040.7 |
| 20260505080306 | 9 | 0 | 0.0 | 0.0 | 0.00 | 0.00 | 0.00 | 95 | 1040.8 |
| 20260505075703 | 9 | 0 | 0.0 | 0.0 | 0.00 | 0.00 | 0.00 | 95 | 1040.8 |
| 20260505075405 | 9 | 0 | 0.0 | 0.0 | 0.00 | 0.00 | 0.00 | 95 | 1040.7 |
| 20260505075106 | 9 | 0 | 0.0 | 0.0 | 0.00 | 0.00 | 0.00 | 95 | 1040.6 |
| 20260505074804 | 9 | 0 | 0.0 | 0.0 | 0.00 | 0.00 | 0.00 | 95 | 1040.7 |
| 20260505074503 | 9 | 0 | 0.0 | 0.0 | 0.00 | 0.00 | 0.00 | 95 | 1040.5 |
| 20260505074205 | 9 | 0 | 0.0 | 0.0 | 0.00 | 0.00 | 0.00 | 94 | 1040.5 |
| 20260505073604 | 9 | 0 | 0.0 | 0.0 | 0.00 | 0.00 | 0.00 | 94 | 1040.5 |
| 20260505073303 | 10 | 0 | 0.0 | 0.0 | 0.00 | 0.00 | 0.00 | 94 | 1040.5 |
| 20260505073003 | 10 | 0 | 0.0 | 0.0 | 0.00 | 0.00 | 0.00 | 93 | 1040.6 |
| 20260505071804 | 10 | 0 | 0.0 | 0.0 | 0.00 | 0.00 | 0.00 | 92 | 1040.4 |
| 20260505071504 | 10 | 0 | 0.0 | 0.0 | 0.00 | 0.00 | 0.00 | 92 | 1040.4 |
| 20260505071203 | 10 | 0 | 0.0 | 0.0 | 0.00 | 0.00 | 0.00 | 92 | 1040.5 |
| 20260505070904 | 10 | 0 | 0.0 | 0.0 | 0.00 | 0.00 | 0.00 | 92 | 1040.4 |
| 20260505070605 | 10 | 0 | 0.0 | 0.0 | 0.00 | 0.00 | 0.00 | 92 | 1040.4 |
| 20260505070303 | 10 | 0 | 0.0 | 0.0 | 0.00 | 0.00 | 0.00 | 92 | 1040.4 |
| 20260505070004 | 10 | 0 | 0.0 | 0.0 | 0.00 | 0.00 | 0.00 | 92 | 1040.4 |
| 20260505064503 | 11 | 0 | 0.0 | 0.0 | 0.00 | 0.00 | 0.00 | 90 | 1040.3 |
| 20260505064204 | 11 | 0 | 0.0 | 0.0 | 0.00 | 0.00 | 0.00 | 90 | 1040.3 |
| 20260505063904 | 11 | 0 | 0.0 | 0.0 | 0.00 | 0.00 | 0.00 | 90 | 1040.2 |
| 20260505063604 | 11 | 0 | 0.0 | 0.0 | 0.00 | 0.00 | 0.00 | 90 | 1040.4 |
| 20260505063304 | 11 | 0 | 0.0 | 0.0 | 0.00 | 0.00 | 0.00 | 90 | 1040.1 |
| 20260505063006 | 11 | 0 | 0.0 | 0.0 | 0.00 | 0.00 | 0.00 | 90 | 1040.2 |
| 20260505062704 | 11 | 0 | 0.0 | 0.0 | 0.00 | 0.00 | 0.00 | 89 | 1040.2 |
| 20260505062403 | 11 | 0 | 0.0 | 0.0 | 0.00 | 0.00 | 0.00 | 89 | 1040.2 |
| 20260505062104 | 11 | 0 | 0.0 | 0.0 | 0.00 | 0.00 | 0.00 | 89 | 1040.3 |
| 20260505061803 | 11 | 0 | 0.0 | 0.0 | 0.00 | 0.00 | 0.00 | 89 | 1040.1 |
| 20260505061505 | 11 | 0 | 0.0 | 0.0 | 0.00 | 0.00 | 0.00 | 89 | 1040.2 |
| 20260505061203 | 11 | 0 | 0.0 | 0.0 | 0.00 | 0.00 | 0.00 | 89 | 1040.1 |
| 20260505060904 | 12 | 0 | 0.0 | 0.0 | 0.00 | 0.00 | 0.00 | 88 | 1040.2 |
| 20260505060606 | 12 | 0 | 0.0 | 0.0 | 0.00 | 0.00 | 0.00 | 88 | 1040.2 |
| 20260505060003 | 12 | 0 | 0.0 | 0.0 | 0.00 | 0.00 | 0.00 | 85 | 1040.0 |
| 20260505055704 | 12 | 0 | 0.0 | 0.0 | 0.00 | 0.00 | 0.00 | 85 | 1040.1 |
| 20260505055104 | 12 | 0 | 0.0 | 0.0 | 0.00 | 0.00 | 0.00 | 84 | 1040.0 |
| 20260505054804 | 12 | 0 | 0.0 | 0.0 | 0.00 | 0.00 | 0.00 | 84 | 1040.0 |
| 20260505054504 | 12 | 0 | 0.0 | 0.0 | 0.00 | 0.00 | 0.00 | 84 | 1039.9 |
| 20260505053904 | 13 | 0 | 0.0 | 0.0 | 0.00 | 0.00 | 0.00 | 82 | 1039.9 |
| 20260505053304 | 13 | 0 | 0.0 | 0.0 | 0.00 | 0.00 | 0.00 | 81 | 1039.8 |